Location: Brede
(50.9167°N, 0.6000°E)
Time: 18:15:51
(UTC+00:00)

Tiros 1 despin weight - Pass Details

Date: 28 November 2020
Orbit: 594 x 641 km, 48.2° (Epoch: 15 January)

Event Time Altitude Azimuth Distance (km) Brightness Sun altitude
Rises 17:38:37 0° 279° (W) 2,943 ? -15.4°
Reaches altitude 10° 17:41:14 10° 267° (W) 2,028 ? -15.8°
Maximum altitude 17:45:06 26° 211° (SSW) 1,243 ? -16.4°
Drops below altitude 10° 17:48:57 10° 155° (SSE) 2,003 ? -17.0°
Enters shadow 17:50:55 - 145° (SE) 2,677 ? -17.3°
